Palma de Mallorca, Spain

6:25 PM CEST on July 28, 2017 (GMT +0200)
Palma De Mallorca

Weather History for LEPA - May, 2013

Change the Weather History Date:

Wednesday, May 22, 2013

  Actual Average Record
Temperature  
Mean Temperature 64 °F -  
Max Temperature 74 °F 79 °F 84 °F (1999)
Min Temperature 55 °F 58 °F 46 °F (2015)
Growing Degree Days 14 (Base 50)    
Moisture  
Dew Point 52 °F    
Average Humidity 66    
Maximum Humidity 88    
Minimum Humidity 38    
Precipitation  
Precipitation 0.00 in 0.02 in - ()
Sea Level Pressure  
Sea Level Pressure 29.91 in    
Wind  
Wind Speed 7 mph ()    
Max Wind Speed 21 mph    
Max Gust Speed 26 mph    
Visibility 6.9 miles    
Events      
Averages and records for this station are not official NWS values.
T = Trace of Precipitation, MM = Missing Value Source: Averaged Metar Reports

Daily Weather History Graph

Daily Weather History Graph

Search for Another Location

Airport or City:

Trip Planner

Search our weather history database for the weather conditions in past years. The results will help you decide how hot, cold, wet, or windy it might be!

Date:

Astronomy

May. 22, 2013 Rise Set
Actual Time 6:29 AM CEST 9:02 PM CEST
Civil Twilight 5:58 AM CEST 9:33 PM CEST
Nautical Twilight 5:19 AM CEST 10:12 PM CEST
Astronomical Twilight 4:36 AM CEST 10:55 PM CEST
Moon 6:07 PM CEST (5/22) 4:22 AM CEST (5/22)
Length of Visible Light 15h 35m
Length of Day
14h 33m
Waxing Gibbous, 89% of the Moon is Illuminated
May 22
Waxing Gibbous
May 25
Full
May 31
Last Quarter
Jun 8
New
Jun 16
First Quarter

Hourly Weather History & Observations

Time (CEST) Temp. Dew Point Humidity Pressure Visibility Wind Dir Wind Speed Gust Speed Precip Events Conditions
12:00 AM 57.2 °F 51.8 °F 82% 29.95 in 6.2 mi NNW 2.3 mph - N/A   Partly Cloudy
12:30 AM 57.2 °F 51.8 °F 82% 29.95 in 6.2 mi Variable 1.2 mph - N/A   Partly Cloudy
1:00 AM 57.2 °F 51.8 °F 82% 29.95 in 6.2 mi Calm Calm - N/A   Partly Cloudy
1:30 AM 57.2 °F 51.8 °F 82% 29.95 in 6.2 mi Calm Calm - N/A   Partly Cloudy
2:00 AM 56 °F 51 °F 78% 29.94 in 9 mi Calm Calm - -   Scattered Clouds
2:00 AM 57.2 °F 51.8 °F 82% 29.95 in 6.2 mi Calm Calm - N/A   Partly Cloudy
2:30 AM 57.2 °F 53.6 °F 88% 29.92 in 6.2 mi Calm Calm - N/A   Partly Cloudy
3:00 AM 57.2 °F 53.6 °F 88% 29.92 in 6.2 mi Calm Calm - N/A   Partly Cloudy
3:30 AM 57.2 °F 53.6 °F 88% 29.92 in 6.2 mi Calm Calm - N/A   Partly Cloudy
4:00 AM 57.2 °F 53.6 °F 88% 29.89 in 6.2 mi Calm Calm - N/A   Partly Cloudy
4:30 AM 57.2 °F 53.6 °F 88% 29.89 in 6.2 mi Calm Calm - N/A   Partly Cloudy
5:00 AM 59.0 °F 53.6 °F 82% 29.89 in 6.2 mi Variable 2.3 mph - N/A   Partly Cloudy
5:30 AM 59.0 °F 50.0 °F 72% 29.89 in 6.2 mi WNW 5.8 mph - N/A   Partly Cloudy
6:00 AM 59.0 °F 51.8 °F 77% 29.89 in 6.2 mi WNW 4.6 mph - N/A   Scattered Clouds
6:30 AM 59.0 °F 51.8 °F 77% 29.89 in 6.2 mi NW 10.4 mph - N/A   Scattered Clouds
7:00 AM 60.8 °F 53.6 °F 77% 29.89 in 6.2 mi NW 12.7 mph 26.5 mph N/A   Scattered Clouds
7:30 AM 60.8 °F 53.6 °F 77% 29.89 in 6.2 mi NW 12.7 mph - N/A   Scattered Clouds
8:00 AM 62 °F 52 °F 60% 29.90 in 12 mi NW 6.9 mph - -   Partly Cloudy
8:00 AM 62.6 °F 53.6 °F 72% 29.89 in 6.2 mi NW 10.4 mph - N/A   Scattered Clouds
8:30 AM 62.6 °F 51.8 °F 68% 29.89 in 6.2 mi NW 18.4 mph - N/A   Partly Cloudy
9:00 AM 62.6 °F 51.8 °F 68% 29.89 in 6.2 mi NW 16.1 mph - N/A   Scattered Clouds
9:30 AM 64.4 °F 53.6 °F 68% 29.89 in 6.2 mi NW 16.1 mph - N/A   Scattered Clouds
10:00 AM 66.2 °F 53.6 °F 64% 29.89 in 6.2 mi NW 13.8 mph - N/A   Scattered Clouds
10:30 AM 64.4 °F 53.6 °F 68% 29.92 in 6.2 mi NW 15.0 mph - N/A   Scattered Clouds
11:00 AM 64.4 °F 53.6 °F 68% 29.92 in 6.2 mi NW 12.7 mph - N/A   Scattered Clouds
11:30 AM 66.2 °F 53.6 °F 64% 29.92 in 6.2 mi NW 12.7 mph - N/A   Scattered Clouds
12:00 PM 68.0 °F 53.6 °F 60% 29.92 in 6.2 mi NW 17.3 mph - N/A   Scattered Clouds
12:30 PM 66.2 °F 53.6 °F 64% 29.92 in 6.2 mi NNW 10.4 mph 21.9 mph N/A   Scattered Clouds
1:00 PM 68.0 °F 53.6 °F 60% 29.92 in 6.2 mi NNW 15.0 mph 26.5 mph N/A   Scattered Clouds
1:30 PM 69.8 °F 50.0 °F 49% 29.92 in 6.2 mi NNW 13.8 mph - N/A   Partly Cloudy
2:00 PM 69 °F 53 °F 46% 29.94 in 19 mi NW 15.0 mph - -   Scattered Clouds
2:00 PM 69.8 °F 51.8 °F 53% 29.92 in 6.2 mi NW 18.4 mph - N/A   Partly Cloudy
2:30 PM 69.8 °F 51.8 °F 53% 29.92 in 6.2 mi NW 16.1 mph - N/A   Partly Cloudy
3:00 PM 69.8 °F 48.2 °F 46% 29.92 in 6.2 mi NW 18.4 mph - N/A   Partly Cloudy
3:30 PM 69.8 °F 48.2 °F 46% 29.92 in 6.2 mi NNW 20.7 mph - N/A   Partly Cloudy
4:00 PM 73.4 °F 48.2 °F 41% 29.89 in 6.2 mi NW 17.3 mph - N/A   Partly Cloudy
4:30 PM 73.4 °F 46.4 °F 38% 29.89 in 6.2 mi NNW 18.4 mph - N/A   Partly Cloudy
5:00 PM 73.4 °F 46.4 °F 38% 29.89 in 6.2 mi NNW 17.3 mph - N/A   Partly Cloudy
5:30 PM 71.6 °F 53.6 °F 53% 29.89 in 6.2 mi WSW 13.8 mph - N/A   Partly Cloudy
6:00 PM 69.8 °F 53.6 °F 56% 29.89 in 6.2 mi WSW 13.8 mph - N/A   Partly Cloudy
6:30 PM 69.8 °F 53.6 °F 56% 29.89 in 6.2 mi WSW 16.1 mph - N/A   Partly Cloudy
7:00 PM 69.8 °F 53.6 °F 56% 29.86 in 6.2 mi WSW 16.1 mph - N/A   Partly Cloudy
7:30 PM 68.0 °F 53.6 °F 60% 29.86 in 6.2 mi WSW 17.3 mph - N/A   Partly Cloudy
8:00 PM 67 °F 51 °F 45% 29.88 in 19 mi WSW 20.7 mph - -   Scattered Clouds
8:00 PM 68.0 °F 51.8 °F 56% 29.89 in 6.2 mi WSW 20.7 mph - N/A   Partly Cloudy
8:30 PM 66.2 °F 51.8 °F 60% 29.89 in 6.2 mi WSW 15.0 mph - N/A   Partly Cloudy
9:00 PM 66.2 °F 51.8 °F 60% 29.89 in 6.2 mi WSW 11.5 mph - N/A   Partly Cloudy
9:30 PM 66.2 °F 51.8 °F 60% 29.89 in 6.2 mi WSW 12.7 mph - N/A   Partly Cloudy
10:00 PM 64.4 °F 57.2 °F 77% 29.92 in 6.2 mi SW 12.7 mph - N/A   Partly Cloudy
10:30 PM 64.4 °F 59.0 °F 83% 29.92 in 6.2 mi WSW 13.8 mph - N/A   Partly Cloudy
11:00 PM 64.4 °F 57.2 °F 77% 29.92 in 6.2 mi WSW 11.5 mph - N/A   Partly Cloudy
11:30 PM 64.4 °F 55.4 °F 73% 29.92 in 6.2 mi WSW 9.2 mph - N/A   Partly Cloudy